SL-14 DEB, 45324

Orbit data source: Space-Track

SL-14 DEB, 45324 is space debris in LEO originally from a launch on Thu, 15 Aug 1991 UTC launched from the Plesetsk Missile And Space Complex (PKMTR). Debris objects in space refer to the collection of defunct objects orbiting the Earth. Examples of debris include non-operational satellites, rocket bodies, and fragments generated from explosions, collisions, or faulty payload assembly.

Loading next visibility...
Identifier
45324, 1991-056BN
Orbit
LEO
Country
Flag of CISCIS
Related business
Manufacturer
Unknown
Mission
Spacecraft
Bus & Motor
Unknown
Mass
Unknown
Launch date (UTC)
1991-08-15 (35 years ago)
Launch vehicle
Unknown
Launch site
Plesetsk Missile And Space Complex (PKMTR)
Object type
Payload
Rocket body
Debris
Shape & HBR
Unknown shape, 0.1 m
Radar Cross Section
Small (<0.1 m²)

Expand to show TLE details & history
Last TLE update: 3 days ago

TLE from 3 days ago
0 SL-14 DEB
1 45324U 91056BN  26124.38038732  .00000177  00000-0  40126-3 0  9999
2 45324  82.5458 158.2111 0026747 167.5972 192.5817 13.21021147299739
Epoch: 2026-05-04T09:07Z
TLE epoch observation values (Epoch: 2026-05-04T09:07:45.464Z)
Latitude
-0°
Longitude
159.00125°
Altitude
1,203.374 km
Speed
7.243 km/s
True Right ascension
10h 32m 50s
True Declination
0° 00' 00"
Sunlit
Object was in daylight at epoch
Visualization orbit readout
Latitude
Unknown
Longitude
Unknown
Altitude
Unknown
Speed
Unknown
Apparent Right ascension
Unknown
Apparent Declination
Unknown
Sunlit
N/A
Visualization observer readout
Local Sidereal Time
07:40:39
Azimuth
Unknown
Elevation
Unknown
Doppler factor
Unknown
Orbital elements
Apogee altitude
1,198.272 km
Perigee altitude
1,157.851 km
Semi-major axis
7,556.198 km
Eccentricity
0.00267
Inclination
82.5458°
RAAN
158.2111°
Arg. of periapsis
167.5972°
True anomaly
192.51515°
Mean anomaly
192.5817°
Eccentric anomaly
192.5484°
Mean motion
3.30437 °/min
Orbital period
108.95 mins
BSTAR
0.00040126
Loading maneuver chart data...
Computing Atmospheric mass density...
Loading historical data...
Loading historical data...
Loading historical data...
Loading historical data...
Loading historical data...
Loading historical data...
Loading historical data...

Documentation

Showing up to 5 results
|